Wetbulb
74.83 74.58 71.35 68.66 67.41 70.62 72.65 72.37 73.98 74.66 72.62 71.46 71.93 71.90 70.49 69.19 66.62 65.79 62.84 61.62 62.91 63.22
75.58 75.41 74.93 73.47 72.91 73.20 72.35 73.78 74.02 74.80 73.30 71.68 71.34 72.05 70.78 66.98 64.62 63.76 62.85 61.80 62.32 62.43
76.51 75.94 75.28 75.28 72.42 72.39 72.52 74.01 74.00 73.97 73.12 70.92 71.37 72.12 69.39 65.81 64.57 62.58 63.06 62.21 60.37 59.90
76.65 76.64 76.17 76.10 73.21 72.99 74.18 74.15 73.66 74.16 72.27 70.68 71.55 71.49 68.77 65.76 63.90 62.15 61.15 59.81 59.19 57.98
76.27 76.72 76.21 75.81 75.11 74.45 75.40 74.64 74.33 73.98 72.61 72.03 71.85 70.70 66.39 65.03 63.47 61.36 59.75 58.25 57.47 56.94
75.79 75.75 75.81 75.36 75.90 75.87 75.48 74.93 75.00 73.73 72.64 72.04 71.03 70.62 68.31 64.23 62.34 61.82 59.20 59.04 57.85 58.93
75.53 75.59 75.71 75.73 75.92 75.44 76.53 75.33 74.95 74.08 72.94 72.02 71.09 69.66 64.60 63.13 61.60 60.16 59.61 59.51 59.08 59.62
76.07 76.15 76.13 75.72 75.46 75.48 76.24 75.36 74.56 74.05 72.68 71.55 71.04 66.40 62.91 61.51 59.04 57.62 57.66 59.89 61.08 60.67
75.57 76.00 75.55 75.81 75.21 76.11 75.97 75.17 74.42 73.28 72.18 71.20 70.72 65.63 65.21 62.49 58.31 58.18 58.06 59.34 59.00 60.15
75.69 76.08 75.63 76.19 75.48 75.72 75.28 75.16 73.90 72.80 71.66 70.28 69.14 64.28 64.82 64.44 58.52 57.52 58.10 57.86 56.86 58.30
75.47 75.21 75.89 75.41 75.47 75.21 74.75 74.37 73.41 72.46 70.80 69.61 64.63 63.02 63.49 64.04 58.03 57.21 58.86 59.90 55.63 55.45
71.49 74.95 74.79 74.23 74.07 73.24 73.40 73.52 73.27 72.37 70.28 65.30 62.25 61.08 61.37 60.38 57.09 57.94 59.34 59.74 58.00 56.90
70.82 71.05 74.17 74.40 74.63 73.92 73.79 72.96 72.45 71.67 71.08 65.03 62.47 59.53 59.51 58.21 57.43 59.28 60.40 58.63 59.89 61.83
72.53 70.16 72.43 74.96 74.87 74.33 73.52 72.84 71.40 70.29 69.93 65.23 62.75 59.83 57.94 58.16 59.35 60.68 58.45 58.20 58.40 59.08
MSLP
1013.90 1014.47 1014.89 1014.95 1015.33 1015.52 1015.68 1015.79 1016.05 1016.21 1016.66 1016.88 1016.85 1017.17 1017.42 1017.98 1018.31 1018.45 1018.53 1018.73 1018.85 1018.85
1013.41 1013.74 1014.10 1014.48 1014.68 1015.04 1015.25 1015.48 1015.81 1015.93 1016.53 1016.70 1016.82 1017.10 1017.59 1018.13 1018.42 1018.56 1018.62 1018.76 1018.85 1018.78
1012.69 1013.14 1013.51 1013.89 1014.34 1014.82 1015.07 1015.17 1015.62 1016.06 1016.57 1016.92 1017.16 1017.28 1017.86 1018.24 1018.54 1018.74 1018.86 1019.07 1019.11 1019.15
1012.09 1012.60 1013.02 1013.45 1013.74 1014.13 1014.43 1014.86 1015.32 1015.86 1016.48 1017.04 1017.37 1017.66 1017.94 1018.42 1018.70 1018.89 1019.06 1019.18 1019.41 1019.49
1011.40 1012.14 1012.75 1013.19 1013.42 1013.66 1014.08 1014.59 1014.98 1015.56 1016.14 1016.62 1017.11 1017.61 1017.86 1018.41 1018.82 1019.13 1019.37 1019.35 1019.54 1019.72
1010.97 1011.64 1012.13 1012.47 1012.63 1012.91 1013.37 1013.98 1014.60 1015.23 1015.80 1016.18 1016.79 1017.42 1017.89 1018.25 1018.73 1019.03 1019.45 1019.71 1019.63 1019.80
1009.99 1010.58 1011.07 1011.37 1011.87 1012.43 1013.02 1013.66 1014.27 1014.80 1015.29 1015.88 1016.30 1016.97 1017.67 1018.20 1018.71 1019.16 1019.54 1019.86 1019.85 1019.77
1008.89 1009.35 1010.00 1010.80 1011.65 1012.24 1012.83 1013.40 1013.99 1014.64 1015.21 1015.69 1016.04 1016.64 1017.31 1017.92 1018.63 1019.23 1019.57 1019.88 1020.14 1020.09
1008.34 1008.84 1009.66 1010.43 1010.96 1011.47 1011.97 1012.52 1013.18 1013.88 1014.65 1015.17 1015.88 1016.43 1017.08 1017.81 1018.57 1019.31 1019.64 1019.89 1020.03 1020.24
1008.55 1008.95 1009.26 1009.74 1010.27 1010.83 1011.42 1012.09 1012.71 1013.31 1013.80 1014.64 1015.38 1016.08 1016.60 1017.47 1018.36 1019.04 1019.45 1019.76 1019.86 1020.17
1008.78 1008.97 1009.33 1009.71 1010.12 1010.65 1011.20 1011.84 1012.52 1013.15 1013.82 1014.35 1015.04 1015.61 1016.33 1017.11 1018.02 1018.71 1019.16 1019.35 1019.74 1019.91
1009.11 1009.36 1009.64 1009.77 1010.06 1010.51 1011.10 1011.63 1012.29 1012.96 1013.53 1014.32 1014.72 1015.30 1016.11 1016.93 1017.90 1018.81 1019.23 1019.40 1019.37 1019.84
1008.61 1008.98 1009.30 1009.39 1009.63 1009.88 1010.42 1010.98 1011.55 1012.47 1013.19 1013.46 1014.69 1015.02 1016.01 1017.12 1017.58 1018.23 1018.91 1019.30 1019.46 1019.40
1008.19 1008.47 1008.54 1008.68 1008.75 1009.19 1009.99 1010.59 1011.19 1012.30 1013.11 1013.80 1014.43 1015.46 1016.10 1016.21 1017.12 1017.69 1018.70 1018.90 1019.01 1019.49
Wind_Speed
8 5 7 7 5 4 4 5 6 6 6 6 6 5 4 3 3 5 4 6 5 2
8 8 8 8 8 6 6 5 7 7 6 7 6 6 5 4 3 3 2 5 5 3
11 9 7 6 9 8 7 7 8 7 6 6 5 6 6 4 4 6 4 3 6 4
10 11 9 6 10 9 7 9 9 8 7 7 6 6 6 6 6 7 6 4 5 4
12 10 10 7 10 9 8 10 10 9 8 7 7 7 8 7 6 6 5 5 5 2
11 10 10 9 11 12 11 11 10 10 9 8 8 7 6 8 7 7 6 4 5 5
14 13 12 13 11 12 10 11 11 11 10 8 8 7 8 7 7 7 5 4 4 5
15 15 13 13 8 8 10 9 10 10 7 8 8 8 9 8 7 7 6 4 4 5
14 13 11 8 11 11 13 13 13 11 10 11 8 15 14 10 7 7 7 7 6 5
8 10 11 10 12 12 13 11 13 12 13 13 10 19 17 16 7 7 7 7 7 6
3 6 7 9 8 8 9 11 10 11 12 11 8 19 19 18 8 7 7 8 7 6
6 4 5 6 6 5 7 8 9 11 12 10 9 16 17 15 8 6 7 6 7 7
7 6 6 8 9 6 8 10 9 11 12 14 9 14 16 10 8 7 5 6 6 14
8 8 8 9 9 8 9 9 9 9 6 8 8 10 7 14 7 8 5 6 5 5
Wind_Direction
195 165 177 188 186 186 187 173 177 172 165 168 159 140 135 83 111 106 88 57 35 46
182 191 180 187 192 186 188 176 175 172 168 162 159 150 134 124 124 99 105 85 52 75
182 188 191 174 175 178 195 160 159 163 157 161 159 142 120 125 102 75 68 75 67 35
178 186 197 177 180 182 169 161 164 162 147 165 159 135 117 135 122 113 112 102 94 65
179 179 190 183 186 180 166 169 162 155 153 160 162 143 137 146 135 133 126 133 110 97
176 176 186 187 182 183 164 162 158 157 165 163 159 151 146 141 151 145 154 153 134 121
175 179 186 188 181 178 167 161 162 167 168 162 153 138 140 141 142 146 151 156 149 138
184 184 182 183 165 161 160 163 162 160 160 157 149 147 146 145 146 153 149 134 113 113
183 181 178 159 169 166 169 164 163 166 164 161 161 150 148 146 147 157 149 145 133 127
162 165 170 165 173 177 175 165 169 167 161 162 165 161 157 150 151 159 164 155 154 162
165 176 173 183 181 170 165 164 171 169 167 164 159 169 159 157 151 163 175 169 171 159
103 121 175 181 179 169 163 169 174 174 171 166 163 165 158 151 153 171 190 188 170 167
174 181 200 191 198 187 175 183 175 174 183 175 161 160 161 162 164 170 177 183 185 168
193 203 210 207 205 179 167 177 176 178 171 136 149 157 193 182 161 174 172 181 166 197